Weather History for KAPA - March, 2013

Change the Weather History Date:

Friday, March 1, 2013

  Actual Average Record
Temperature  
Mean Temperature 32 °F -  
Max Temperature 44 °F 43 °F 71 °F (2008)
Min Temperature 20 °F 20 °F 1 °F (2002)
Degree Days  
Heating Degree Days 33    
Month to date heating degree days 33  
Moisture  
Dew Point 18 °F    
Average Humidity 56    
Maximum Humidity 75    
Minimum Humidity 36    
Precipitation  
Precipitation 0.00 in - - ()
Month to date precipitation 0.00  
Year to date precipitation 0.69  
Sea Level Pressure  
Sea Level Pressure 30.34 in    
Wind  
Wind Speed 7 mph (SE)    
Max Wind Speed 12 mph    
Max Gust Speed 16 mph    
Visibility 10 miles    
Events      
Averages and records for this station are not official NWS values.
T = Trace of Precipitation, MM = Missing Value Source: NWS Daily Summary

Daily Weather History Graph

Daily Weather History Graph

Search for Another Location

Airport or City:

Trip Planner

Search our weather history database for the weather conditions in past years. The results will help you decide how hot, cold, wet, or windy it might be!

Date:

Astronomy

Mar. 01, 2013 Rise Set
Actual Time 6:31 AM MST 5:51 PM MST
Civil Twilight 6:04 AM MST 6:18 PM MST
Nautical Twilight 5:33 AM MST 6:50 PM MST
Astronomical Twilight 5:02 AM MST 7:21 PM MST
Moon 10:26 PM MST (3/1) 8:21 AM MST (3/1)
Length of Visible Light 12h 14m
Length of Day
11h 20m
Waning Gibbous, 83% of the Moon is Illuminated
Mar 1
Waning Gibbous
Mar 4
Last Quarter
Mar 11
New
Mar 19
First Quarter
Mar 27
Full

Hourly Weather History & Observations

Time (MST) Temp. Windchill Dew Point Humidity Pressure Visibility Wind Dir Wind Speed Gust Speed Precip Events Conditions
12:53 AM 32.0 °F 23.0 °F 12.9 °F 45% 30.27 in 10.0 mi WNW 11.5 mph - N/A   Mostly Cloudy
1:53 AM 32.0 °F 23.6 °F 14.0 °F 48% 30.27 in 10.0 mi NW 10.4 mph - N/A   Mostly Cloudy
2:53 AM 28.9 °F 21.1 °F 15.1 °F 56% 30.28 in 10.0 mi NNE 8.1 mph - N/A   Mostly Cloudy
3:53 AM 24.1 °F 18.2 °F 16.0 °F 71% 30.34 in 10.0 mi SSE 4.6 mph - N/A   Overcast
5:53 AM 25.0 °F 16.3 °F 14.0 °F 63% 30.36 in 10.0 mi SSE 8.1 mph - N/A   Scattered Clouds
6:53 AM 24.1 °F 15.2 °F 12.9 °F 62% 30.38 in 10.0 mi SSE 8.1 mph - N/A   Mostly Cloudy
8:53 AM 30.0 °F 22.4 °F 16.0 °F 56% 30.38 in 10.0 mi South 8.1 mph - N/A   Mostly Cloudy
11:53 AM 36.0 °F 31.1 °F 16.0 °F 44% 30.36 in 10.0 mi ESE 5.8 mph - N/A   Mostly Cloudy
12:53 PM 37.9 °F 33.5 °F 17.1 °F 43% 30.31 in 10.0 mi East 5.8 mph - N/A   Mostly Cloudy
1:53 PM 39.9 °F - 17.1 °F 40% 30.29 in 10.0 mi Calm Calm - N/A   Mostly Cloudy
2:53 PM 41.0 °F 39.0 °F 17.1 °F 38% 30.29 in 10.0 mi ESE 3.5 mph - N/A   Mostly Cloudy
3:53 PM 43.0 °F 40.3 °F 17.1 °F 35% 30.30 in 10.0 mi East 4.6 mph - N/A   Mostly Cloudy
4:53 PM 41.0 °F 38.0 °F 19.9 °F 43% 30.34 in 10.0 mi NE 4.6 mph - N/A   Mostly Cloudy
5:53 PM 37.9 °F 35.5 °F 19.0 °F 47% 30.37 in 10.0 mi NE 3.5 mph - N/A   Mostly Cloudy
6:53 PM 35.1 °F 30.1 °F 21.9 °F 59% 30.40 in 10.0 mi SE 5.8 mph - N/A   Mostly Cloudy
7:53 PM 30.9 °F 24.3 °F 21.9 °F 69% 30.42 in 10.0 mi South 6.9 mph - N/A   Mostly Cloudy
8:53 PM 30.9 °F 24.3 °F 21.9 °F 69% 30.40 in 10.0 mi South 6.9 mph - N/A   Scattered Clouds
9:53 PM 28.9 °F 21.9 °F 21.0 °F 72% 30.38 in 10.0 mi South 6.9 mph - N/A   Scattered Clouds
10:53 PM 28.9 °F 23.9 °F 21.0 °F 72% 30.37 in 10.0 mi SSW 4.6 mph - N/A   Scattered Clouds
11:53 PM 30.0 °F 26.5 °F 21.0 °F 69% 30.36 in 10.0 mi SW 3.5 mph - N/A   Scattered Clouds